Regional Weather Roundup
Issued by NWS Little Rock, AR

Home | Current Version | Previous Version | Text Only | Print | Product List | Glossary Off
Versions: 1 2 3 4 5 6 7 8 9 10 11 12 13 14 15 16 17 18 19 20 21 22 23 24 25 26 27 28 29 30 31 32 33 34 35 36 37 38 39 40 41 42 43 44 45 46 47 48 49 50

000
ASUS44 KLZK 271005
RWRLZK

WEATHER ROUNDUP FOR ARKANSAS
NATIONAL WEATHER SERVICE LITTLE ROCK AR
500 AM CDT WED JUL 27 2016

NOTE: "FAIR" INDICATES FEW OR NO CLOUDS BELOW 12,000 FEET WITH NO
SIGNIFICANT WEATHER AND/OR OBSTRUCTIONS TO VISIBILITY.

ARZ001-003-010-029-271100-
NORTHWEST ARKANSAS

CITY           SKY/WX    TMP DP  RH WIND       PRES   REMARKS
FAYETTEVILLE   CLOUDY    70  70 100 CALM      29.99R
FORT SMITH     CLOUDY    76  73  91 NE6       29.95R
HARRISON       PTCLDY    71  71 100 CALM      30.02R FOG
BENTONVILLE    MOCLDY    73  70  88 E5        30.00R
ROGERS         CLOUDY    73  72  96 CALM      30.00R
SILOAM SPGS    PTCLDY    72  63  73 E5        29.99S
HIGHFILL       PTCLDY    72  72 100 NE3       29.99R
$$

ARZ004-005-016-271100-
NORTH CENTRAL ARKANSAS

CITY           SKY/WX    TMP DP  RH WIND       PRES   REMARKS
BATESVILLE     CLOUDY    73  72  94 W3        29.97R
FLIPPIN        CLOUDY    73  70  88 CALM      29.98R VSB 1/2
MTN HOME       CLEAR     72  72 100 CALM      30.00R
$$

ARZ040-041-271100-
WEST CENTRAL ARKANSAS

CITY           SKY/WX    TMP DP  RH WIND       PRES   REMARKS
MENA           CLEAR     73  73 100 CALM      29.98R
MOUNT IDA      CLEAR     73  72  96 CALM      29.94R
$$

ARZ009-017-025-026-028-271100-
NORTHEAST ARKANSAS

CITY           SKY/WX    TMP DP  RH WIND       PRES   REMARKS
CORNING          N/A     73  73 100 NE5       29.97R
JONESBORO      CLEAR     75  74  96 NE6       29.94R
NEWPORT        CLEAR     75  75 100 N5        29.96R FOG
WALNUT RIDGE   CLEAR     73  70  88 N6        29.95S
BLYTHEVILLE    CLEAR     76  73  91 CALM      29.96R
$$

ARZ022-023-033-042-044-271100-
CENTRAL ARKANSAS

CITY           SKY/WX    TMP DP  RH WIND       PRES   REMARKS
LITTLE ROCK    CLOUDY    81  73  76 N6        29.94R HX  86
N LITTLE ROCK    N/A     76  73  89 NE3       29.92R
JACKSONVILLE   MOCLDY    78  75  91 N2        29.94R
SEARCY         CLEAR     75  74  96 CALM      29.96S
HOT SPRINGS    CLEAR     75  72  90 CALM      29.95S
RUSSELLVILLE   CLEAR     73  72  96 CALM      29.95R
$$

ARZ036-271100-
EAST ARKANSAS

CITY           SKY/WX    TMP DP  RH WIND       PRES   REMARKS
WEST MEMPHIS   PTCLDY    75  74  96 CALM      29.93R
$$

ARZ050-053-066-070-073-271100-
SOUTHWEST ARKANSAS

CITY           SKY/WX    TMP DP  RH WIND       PRES   REMARKS
CAMDEN         CLOUDY    75  72  88 CALM      29.92S
TEXARKANA      CLEAR     77  72  84 SW5       29.93R
EL DORADO      CLOUDY    75  72  90 CALM      29.92S
DE QUEEN       PTCLDY    75  74  96 E3        29.91S
$$

ARZ056-057-069-271100-
SOUTHEAST ARKANSAS

CITY           SKY/WX    TMP DP  RH WIND       PRES   REMARKS
PINE BLUFF     CLOUDY    77  72  84 SW3       29.92S
STUTTGART      CLOUDY    79  72  78 W3        29.93F
MONTICELLO     CLOUDY    79  73  82 CALM      29.93R

$$





USA.gov is the U.S. government's official web portal to all federal, state and local government web resources and services.